Home   Weather   Scarborough   Past weeks

Flag for Trinidad and Tobago Past Weather in Scarborough, Trinidad and Tobago — Yesterday and Last 2 Weeks

81 °F

Passing clouds.

Feels Like: 85 °F
Forecast: 79 / 87 °F
Wind: No wind

Location: Crown Pt./ Scarborou

Current Time: Oct 26, 2016 at 3:36:59 AM

Latest Report: Oct 26, 2016 at 3:00 AM

Visibility: N/A

Pressure: 29.80 "Hg

Humidity: 79%

Dew Point: 73 °F

Location of ScarboroughLocation

Past Weather in Scarborough — Graph


Scarborough Temperature Yesterday

Maximum temperature yesterday: 86 °F (at 10:00 AM)
Minimum temperature yesterday: 79 °F (at 1:00 AM)
Average temperature yesterday: 82 °F

High & Low Weather Summary for the Past Weeks

High90 °F (Oct 19, 2:00 PM)94% (Oct 11, 12:00 PM)29.98 "Hg (Oct 11, 12:00 PM)
Low75 °F (Oct 11, 12:00 PM)59% (Oct 21, 10:00 AM)29.71 "Hg (Oct 25, 5:00 PM)
Average83 °F77%29.86 "Hg
* Reported Oct 11 2:00 AM — Oct 26 2:00 AM, Scarborough, Weather by CustomWeather, © 2016

Note: Actual official high and low records may vary slightly from our data, if they occured in-between our weather recording intervals... More about our weather records


Scarborough Weather History for the Previous 24 Hours

Scroll right to see more
Time TempWeatherWind HumidityBarometerVisibility
2:00 AM
Wed, Oct 26
81 °FPassing clouds.7 mph84%29.77 "HgN/A
1:00 AM81 °FPassing clouds.No wind79%29.80 "HgN/A
12:00 AM81 °FPassing clouds.No wind79%29.80 "HgN/A
11:00 PM
Tue, Oct 25
81 °FPassing clouds.7 mph79%29.83 "HgN/A
10:00 PM82 °FPassing clouds.No wind79%29.80 "HgN/A
9:00 PM82 °FPassing clouds.No wind79%29.80 "HgN/A
8:00 PM82 °FPassing clouds.15 mph79%29.77 "HgN/A
7:00 PM82 °FPassing clouds.10 mph79%29.77 "HgN/A
6:00 PM82 °FPassing clouds.8 mph79%29.74 "HgN/A
5:00 PM84 °FPassing clouds.10 mph70%29.71 "HgN/A
3:00 PM86 °FPassing clouds.13 mph75%29.74 "HgN/A
1:00 PM86 °FSprinkles. Passing clouds.16 mph70%29.80 "HgN/A
11:00 AM86 °FPassing clouds.12 mph75%29.86 "HgN/A
10:00 AM86 °FPassing clouds.6 mph66%29.86 "HgN/A
8:00 AM81 °FPassing clouds.No wind89%29.86 "HgN/A
7:00 AM79 °FScattered showers. Scattered clouds.No wind89%29.83 "HgN/A
6:00 AM79 °FPassing clouds.No wind89%29.80 "HgN/A
5:00 AM79 °FPassing clouds.No wind84%29.80 "HgN/A
4:00 AM79 °FPassing clouds.No wind84%29.80 "HgN/A
Weather by CustomWeather, © 2016

See weather overviewHow to use our weather pages